User: anonymous   Login
Location: Unspecified
(0.0000°N, 0.0000°E)
Time: 13:11:20
(UTC+01:00)
Language:

Cosmos 2263 Rocket - Orbit

View from above orbital plane
View from above orbital plane
View from above satellite
View from above satellite

Ground track
Ground track

The orbit data is extracted from the following two-line orbital elements,

1 22803U 93059B   14352.49241039 -.00000182  00000-0 -66787-4 0  4455
2 22803 070.9905 010.4830 0018792 327.7960 032.2014 14.16691624 99150
Epoch (UTC): 18 December 2014 11:49:04
Eccentricity: 0.0018792
inclination: 70.9905°
perigee height: 823 km
apogee height: 850 km
right ascension of ascending node: 10.4830°
argument of perigee: 327.7960°
revolutions per day: 14.16691624
mean anomaly at epoch: 32.2014°
orbit number at epoch: 9915

The dashed part of the orbit path shows where the satellite is in the earth's shadow,  

DLR